Location: Alfortville
(48.8058°N, 2.4204°E)
Time: 06:52:52
(UTC+00:00)

CUTE-I - Pass Details

Date: 01 April 2023
Orbit: 808 x 823 km, 98.7° (Epoch: 06 June)

Event Time Altitude Azimuth Distance (km) Brightness Sun altitude
Rises 04:39:19 0° 31° (NNE) 3,365 ? -8.8°
Reaches altitude 10° 04:43:07 10° 58° (ENE) 2,428 ? -8.2°
Maximum altitude 04:45:34 13° 86° (E) 2,211 ? -7.8°
Drops below altitude 10° 04:48:00 10° 113° (ESE) 2,423 ? -7.4°
Sets 04:51:46 0° 141° (SE) 3,349 ? -6.8°
